EST,Max TemperatureF,Mean TemperatureF,Min TemperatureF,Max Dew PointF,MeanDew PointF,Min DewpointF,Max Humidity, Mean Humidity, Min Humidity, Max Sea Level PressureIn, Mean Sea Level PressureIn, Min Sea Level PressureIn, Max VisibilityMiles, Mean VisibilityMiles, Min VisibilityMiles, Max Wind SpeedMPH, Mean Wind SpeedMPH, Max Gust SpeedMPH,PrecipitationIn, CloudCover, Events, WindDirDegrees
2012-11-1,54,46,39,35,28,18,74,51,24,29.90,29.87,29.84,10,10,10,15,8,22,0.00,5,,254
2012-11-2,54,44,34,34,31,28,86,61,40,30.13,29.99,29.86,10,10,10,12,4,,0.00,2,,351
2012-11-3,46,38,30,39,33,28,100,88,65,30.22,30.17,30.13,10,7,1,7,1,,0.09,5,Fog-Rain,36
2012-11-4,51,39,30,38,32,28,100,82,54,30.21,30.17,30.14,10,6,0,9,1,,0.00,4,Fog,356
2012-11-5,50,38,26,32,29,25,93,78,46,30.22,30.17,30.11,10,7,2,9,2,,0.00,1,,37
2012-11-6,51,38,24,36,28,23,100,79,44,30.12,30.05,29.94,10,6,0,5,1,,0.00,3,Fog,54
2012-11-7,55,46,34,36,33,30,92,65,38,30.14,30.00,29.91,10,9,3,10,2,16,0.00,3,,347
2012-11-8,53,40,26,34,29,26,100,83,43,30.28,30.20,30.13,10,5,0,5,0,,0.00,0,Fog,230
2012-11-9,61,44,28,40,33,26,100,81,41,30.30,30.23,30.16,10,6,0,12,1,,0.00,1,Fog,198
2012-11-10,72,56,41,46,41,38,92,66,37,30.24,30.19,30.13,10,10,9,15,4,22,0.00,1,,211
2012-11-11,69,54,39,46,39,34,96,62,30,30.29,30.19,30.09,10,10,2,18,4,34,0.00,0,,184
2012-11-12,63,48,30,56,43,25,94,81,56,30.45,30.18,30.03,10,7,2,18,10,28,0.43,5,Rain,231
2012-11-13,45,36,26,29,26,22,100,81,42,30.56,30.49,30.45,10,7,0,7,2,,0.00,0,Fog,293
2012-11-14,44,34,23,28,25,20,93,76,49,30.57,30.50,30.41,10,8,2,9,2,,0.00,0,,50
2012-11-15,48,36,24,31,27,21,96,77,44,30.42,30.38,30.34,10,7,2,6,1,,0.00,0,,22
2012-11-16,52,38,24,35,28,21,100,84,49,30.51,30.45,30.40,10,5,0,8,1,,0.00,0,Fog,34
2012-11-17,60,42,25,35,28,23,100,79,31,30.59,30.52,30.48,10,6,0,10,1,,0.00,0,Fog,44
2012-11-18,62,44,25,33,28,23,92,70,29,30.51,30.45,30.38,10,10,6,5,1,,0.00,0,,45
2012-11-19,59,44,28,38,33,26,93,76,46,30.40,30.32,30.22,10,10,9,6,1,,0.00,0,,120
2012-11-20,62,48,35,41,37,32,100,77,37,30.20,30.16,30.09,10,7,2,5,0,,0.00,4,,218
2012-11-21,64,50,37,40,38,35,93,70,38,30.26,30.21,30.14,10,10,6,7,1,,0.00,2,,240
2012-11-22,66,48,30,42,34,29,100,84,39,30.25,30.20,30.04,10,4,0,13,1,,0.00,0,Fog,203
2012-11-23,57,46,34,46,32,20,80,56,44,30.22,30.07,29.96,10,10,10,22,12,30,0.00,5,Rain,270
2012-11-24,35,30,25,21,19,18,78,62,52,30.27,30.23,30.17,10,10,10,12,8,,0.00,6,,283
2012-11-25,48,36,25,31,24,19,81,63,41,30.16,30.04,29.94,10,10,10,15,5,21,0.00,1,,209
2012-11-26,53,40,27,32,29,24,92,64,38,30.27,30.17,30.07,10,10,9,13,2,,0.00,3,Rain,21
2012-11-27,42,34,25,34,27,22,93,75,49,30.38,30.33,30.26,10,8,4,12,6,,0.03,3,Rain,8
2012-11-28,45,33,21,27,22,18,93,75,42,30.46,30.41,30.35,10,7,1,8,1,,0.00,0,,253
2012-11-29,50,34,19,28,24,18,100,79,43,30.45,30.38,30.27,10,7,0,8,1,,0.00,0,Fog,188
2012-11-30,59,43,27,38,32,25,92,74,42,30.29,30.24,30.17,10,9,5,17,3,,0.00,3,,202